TimeEST,TemperatureF,Dew PointF,Humidity,Sea Level PressureIn,VisibilityMPH,Wind Direction,Wind SpeedMPH,Gust SpeedMPH,PrecipitationIn,Events,Conditions,WindDirDegrees,DateUTC
12:54 AM,32.0,12.9,45,30.09,10.0,NNW,8.1,-,N/A,,Clear,330,2013-01-21 05:54:00
1:54 AM,30.9,12.0,46,30.11,10.0,NNW,9.2,-,N/A,,Clear,330,2013-01-21 06:54:00
2:54 AM,30.0,9.0,41,30.12,10.0,NW,10.4,-,N/A,,Clear,320,2013-01-21 07:54:00
3:54 AM,28.9,9.0,43,30.11,10.0,NNW,8.1,-,N/A,,Clear,330,2013-01-21 08:54:00
4:54 AM,28.0,9.0,45,30.10,10.0,North,10.4,-,N/A,,Clear,350,2013-01-21 09:54:00
5:54 AM,28.0,10.0,47,30.09,10.0,North,5.8,-,N/A,,Clear,360,2013-01-21 10:54:00
6:54 AM,28.0,10.9,49,30.12,10.0,Calm,Calm,-,N/A,,Clear,0,2013-01-21 11:54:00
7:54 AM,28.9,10.9,47,30.13,10.0,Calm,Calm,-,N/A,,Clear,0,2013-01-21 12:54:00
8:54 AM,30.9,10.0,42,30.13,10.0,Calm,Calm,-,N/A,,Scattered Clouds,0,2013-01-21 13:54:00
9:54 AM,32.0,9.0,38,30.12,10.0,Calm,Calm,-,N/A,,Clear,0,2013-01-21 14:54:00
10:54 AM,35.1,9.0,34,30.10,10.0,Calm,Calm,-,N/A,,Clear,0,2013-01-21 15:54:00
11:54 AM,36.0,10.9,36,30.05,10.0,Variable,6.9,-,N/A,,Clear,0,2013-01-21 16:54:00
12:54 PM,35.1,10.9,37,30.01,10.0,SE,5.8,-,N/A,,Clear,140,2013-01-21 17:54:00
1:54 PM,34.0,12.9,42,29.99,10.0,SSE,9.2,-,N/A,,Mostly Cloudy,160,2013-01-21 18:54:00
2:54 PM,35.1,17.1,48,29.94,10.0,SSE,10.4,-,N/A,,Overcast,150,2013-01-21 19:54:00
3:54 PM,35.1,17.1,48,29.90,10.0,SE,9.2,-,N/A,,Mostly Cloudy,130,2013-01-21 20:54:00
4:54 PM,35.1,17.1,48,29.87,10.0,South,4.6,-,N/A,,Overcast,170,2013-01-21 21:54:00
5:54 PM,33.1,19.0,56,29.85,10.0,ENE,4.6,-,N/A,,Mostly Cloudy,70,2013-01-21 22:54:00
6:17 PM,33.1,19.0,56,29.84,10.0,NNE,4.6,-,N/A,,Mostly Cloudy,30,2013-01-21 23:17:00
6:54 PM,33.1,19.9,59,29.82,10.0,NNE,4.6,-,N/A,,Overcast,30,2013-01-21 23:54:00
7:10 PM,33.1,19.9,59,29.81,10.0,North,6.9,-,N/A,,Overcast,360,2013-01-22 00:10:00
7:32 PM,34.0,19.9,56,29.80,10.0,North,9.2,-,N/A,,Overcast,360,2013-01-22 00:32:00
7:54 PM,34.0,19.9,56,29.82,10.0,NNW,16.1,-,N/A,,Overcast,340,2013-01-22 00:54:00
8:22 PM,30.0,24.1,79,29.85,2.5,NNW,21.9,26.5,0.00,Snow,Light Snow,330,2013-01-22 01:22:00
8:41 PM,28.9,25.0,85,29.86,0.8,NNW,18.4,26.5,0.01,Snow,Light Snow,330,2013-01-22 01:41:00
9:13 PM,28.0,25.0,88,29.85,2.0,NNW,11.5,-,0.02,Snow,Light Snow,340,2013-01-22 02:13:00
9:27 PM,28.0,25.0,88,29.87,6.0,NNW,12.7,-,0.02,Snow,Light Snow,330,2013-01-22 02:27:00
9:54 PM,28.0,24.1,85,29.88,7.0,NNW,16.1,-,0.02,Snow,Light Snow,330,2013-01-22 02:54:00
10:02 PM,28.0,24.1,85,29.87,9.0,NNW,16.1,-,0.00,,Overcast,340,2013-01-22 03:02:00
10:54 PM,28.0,23.0,81,29.88,10.0,NNW,10.4,-,0.00,,Overcast,330,2013-01-22 03:54:00
11:54 PM,25.0,21.0,85,29.89,10.0,NW,9.2,-,N/A,,Clear,320,2013-01-22 04:54:00